Regional Weather Roundup
Issued by NWS

Home | Current Version | Previous Version | Graphics & Text | Print | Product List | Glossary Off
Versions: 1 2 3 4 5 6 7 8 9 10 11 12 13 14 15 16 17 18 19 20 21 22 23 24 25 26 27 28 29 30 31 32 33 34 35 36 37 38 39 40 41 42 43 44 45 46 47 48 49 50

000
ASUS43 KLSX 230059
RWRMO

WEATHER SUMMARY FOR MISSOURI
NATIONAL WEATHER SERVICE SPRINGFIELD MO
800 PM CDT TUE APR 22 2014

NOTE: "FAIR" INDICATES FEW OR NO CLOUDS BELOW 12,000 FEET WITH NO
       SIGNIFICANT WEATHER AND/OR OBSTRUCTIONS TO VISIBILITY.
       CURRENT SKY AND/OR WEATHER CONDITIONS ARE NOT AVAILABLE FOR
       CHILLICOTHE AND FARMINGTON.

MOZ001>031-035>038-043-044-053-054-230200-
...NORTHERN AND WESTERN MISSOURI...

CITY           SKY/WX    TMP DP  RH WIND       PRES   REMARKS
KANSAS CTY INT PTCLDY    63  33  32 NE7       29.99F
KANSAS C DTWN  PTCLDY    64  32  30 E8        29.98F
LEE`S SUMMIT   PTCLDY    61  34  36 E6        30.00F
ST JOSEPH      PTCLDY    62  34  35 E6        29.99F
KIRKSVILLE     CLEAR     57  34  41 NE6       30.02F

$$
MOZ066>068-077>081-088>096-101>105-230200-
...SOUTHWEST MISSOURI...

CITY           SKY/WX    TMP DP  RH WIND       PRES   REMARKS
SPRINGFIELD    CLEAR     62  39  42 N5        29.98F
JOPLIN         CLEAR     64  35  34 NE3       29.99F

$$
MOZ032>034-039>042-045>050-055>058-069>072-230200-
...CENTRAL MISSOURI...

CITY           SKY/WX    TMP DP  RH WIND       PRES   REMARKS
COLUMBIA       CLEAR     57  37  47 NE7       30.01S
JEFFERSON CITY CLEAR     64  33  31 NE6       30.00S
ROLLA          CLEAR     58  34  40 NW6       29.98F
SEDALIA        CLEAR     62  35  36 E3        30.01S
OSAGE BEACH    CLEAR     63  34  34 N3        30.01S

$$
MOZ051-052-059>065-230200-
...EAST CENTRAL MISSOURI...

CITY           SKY/WX    TMP DP  RH WIND       PRES   REMARKS
ST LOUIS INTL  MOCLDY    62  33  33 NW6       29.99S
SPIRIT OF STL  PTCLDY    62  31  31 N5        29.99S
ST CHARLES     CLEAR     60  31  33 N7        29.98S

$$
MOZ072>076-082>087-097>100-106>115-230200-
...SOUTH CENTRAL AND SOUTHEAST MISSOURI...

CITY           SKY/WX    TMP DP  RH WIND       PRES   REMARKS
CAPE GIRARDEAU CLEAR     62  37  39 N9        29.96R
FARMINGTON     CLEAR     63  34  34 N5        30.00R
POPLAR BLUFF   CLEAR     66  38  35 E7        29.93R
WEST PLAINS    CLEAR     64  31  28 N5        29.98S

$$



USA.gov is the U.S. government's official web portal to all federal, state and local government web resources and services.